Content
SEND FEEDBACK

Daily
Averages
Monthly
Summary
Canada

QUEBEC CITY, QUEBEC


Home > North America > Canada > Quebec
Elevation: 239 feet     Latitude: 46 48N     Longitude: 071 23W

WEATHER
 
SELECT A DAY
Number of Records: 192,552;   Date Range: 6/30/96 - 8/27/14
 
SHARE

PRINT THIS DATA

[ ← Previous Day ]
WEATHER ALMANAC - JANUARY 17, 2014
[ Next Day → ]
[ °C ]   °F
Weather ElementAverageHighLow
Temperature28.4 °F32 °F (1:00 pm)26.6 °F (1:00 am)
Dewpoint24.7 °F29 °F (10:00 pm)21.2 °F (1:00 am)
Humidity84.8 %98 % (10:00 pm)68 % (1:00 pm)
Barometer29.90 in29.96 in (1:00 am)29.84 in (1:00 pm)
Wind Speed3.1 mph6.9 mph (10:00 am)
Weather ElementAverage
Visibility6 mi
Wind DirectionS (176.6 °)

Weather ElementTotal
Precipitation---
Heating Degree Days35.7 (Base 65)
Averaged from 35 records on January 17, 2014
WEATHER CONDITIONS BREAKOUT
WIND DIRECTION BREAKOUT
WEATHER BY HOUR - JANUARY 17, 2014
[ °C ]   °F
Local TimeTemperatureDewpointHumidityBarometerVisibilityWind DirectionWind SpeedGust SpeedPrecipitationEventsConditions
1:00 AM27.0 °F22.0 °F75 %29.95 inNNW (340°)2.3 mph
1:00 AM26.6 °F21.2 °F80 %29.96 in8.0 miNorth (350°)2.3 mphOvercast
1:10 AM26.6 °F21.2 °F80 %29.95 in6.0 miNNE (20°)4.6 mphSnowLight Snow
2:00 AM26.6 °F21.2 °F80 %29.95 in6.0 miNNE (30°)4.6 mphSnowLight Snow
3:00 AM26.6 °F21.2 °F80 %29.95 in6.0 miNNW (340°)4.6 mphSnowLight Snow
4:00 AM27.0 °F24.0 °F82 %29.92 inNorth2.3 mph
4:00 AM26.6 °F23.0 °F86 %29.93 in8.0 miNNE (30°)4.6 mphSnowLight Snow
4:49 AM26.6 °F21.2 °F80 %29.92 in8.0 miNNW (340°)4.6 mphOvercast
5:00 AM26.6 °F23.0 °F86 %29.92 in8.0 miNorth (10°)3.5 mphOvercast
5:25 AM26.6 °F23.0 °F86 %29.93 in8.0 miNorth (10°)3.5 mphSnowLight Snow
6:00 AM26.6 °F23.0 °F86 %29.93 in8.0 miNorth (350°)3.5 mphSnowLight Snow
7:00 AM27.0 °F24.0 °F82 %29.93 inNorth (350°)3.5 mph
7:00 AM26.6 °F23.0 °F86 %29.94 in8.0 miNNW (340°)3.5 mphSnowLight Snow
8:00 AM26.6 °F23.0 °F86 %29.92 in6.0 miNNE (30°)5.8 mphSnowLight Snow
9:00 AM28.4 °F24.8 °F86 %29.93 in6.0 miENE (60°)4.6 mphSnowLight Snow
10:00 AM30.0 °F27.0 °F84 %29.91 inESE (110°)6.9 mph
10:00 AM28.4 °F26.6 °F93 %29.93 in6.0 miESE (110°)6.9 mphSnowLight Snow
11:00 AM30.2 °F24.8 °F80 %29.89 in6.0 miEast (90°)4.6 mphOvercast
12:00 PM30.2 °F24.8 °F80 %29.87 in8.0 miSouth (180°)3.5 mphOvercast
12:39 PM30.2 °F24.8 °F80 %29.85 in8.0 miCalmOvercast
1:00 PM32.0 °F26.0 °F68 %29.84 inSSW (200°)1.2 mph
1:00 PM30.2 °F24.8 °F80 %29.85 in8.0 miCalmOvercast
2:00 PM30.2 °F24.8 °F80 %29.85 in8.0 miWest (280°)2.3 mphMostly Cloudy
3:00 PM30.2 °F24.8 °F80 %29.85 in1.5 miWNW (290°)2.3 mphSnowLight Snow Showers
4:00 PM31.0 °F27.0 °F80 %29.85 inSSW (200°)1.2 mph
4:00 PM30.2 °F26.6 °F86 %29.86 in2.0 miCalmSnowLight Snow Showers
5:00 PM30.2 °F26.6 °F86 %29.87 in4.0 miSSW (200°)2.3 mphSnowLight Snow Showers
6:00 PM28.4 °F26.6 °F93 %29.88 in5.0 miWNW (290°)2.3 mphSnowLight Snow Showers
7:00 PM29.0 °F28.0 °F93 %29.87 inWest (280°)1.2 mph
7:00 PM28.4 °F26.6 °F93 %29.88 in4.0 miWSW (250°)2.3 mphSnowLight Snow Showers
8:00 PM28.4 °F26.6 °F93 %29.88 in4.0 miSSW (210°)2.3 mphSnowLight Snow Showers
9:00 PM28.4 °F26.6 °F93 %29.87 in4.0 miSSW (200°)3.5 mphSnowLight Snow Showers
10:00 PM29.0 °F29.0 °F98 %29.86 inSW (230°)1.2 mph
10:00 PM28.4 °F26.6 °F93 %29.87 in4.0 miSSW (200°)4.6 mphSnowLight Snow
11:00 PM28.4 °F26.6 °F93 %29.86 in4.0 miWest (260°)2.3 mphSnowLight Snow
Hourly data recorded from CYQB, located miles away from Quebec City, Quebec







STORIES FROM OUR PARTNERS